| time (UTC) | temp C | wind direction | speed KPH | gust KPH | rain 1hr cm | rain 24hr cm | rain mn cm | humidity % | barometer mb |
| 20260906191526 | 26 | 265 | 4.8 | 9.7 | 0.00 | 0.00 | 0.00 | 69 | 1019.7 |
| 20260906190551 | 26 | 230 | 4.8 | 8.0 | 0.00 | 0.00 | 0.00 | 71 | 1019.7 |
| 20260906185518 | 26 | 191 | 6.4 | 11.3 | 0.00 | 0.00 | 0.00 | 71 | 1019.9 |
| 20260906184522 | 25 | 245 | 4.8 | 6.4 | 0.00 | 0.00 | 0.00 | 74 | 1020.1 |
| 20260906183527 | 25 | 73 | 6.4 | 11.3 | 0.00 | 0.00 | 0.00 | 71 | 1020.0 |
| 20260906182533 | 25 | 147 | 6.4 | 8.0 | 0.00 | 0.00 | 0.00 | 71 | 1019.9 |
| 20260906181519 | 25 | 320 | 3.2 | 6.4 | 0.00 | 0.00 | 0.00 | 72 | 1019.9 |
| 20260906180544 | 26 | 276 | 4.8 | 8.0 | 0.00 | 0.00 | 0.00 | 70 | 1020.0 |
| 20260906175529 | 26 | 310 | 4.8 | 9.7 | 0.00 | 0.00 | 0.00 | 71 | 1020.0 |
| 20260906174516 | 26 | 322 | 6.4 | 9.7 | 0.00 | 0.00 | 0.00 | 72 | 1020.1 |
| 20260906173521 | 25 | 62 | 6.4 | 11.3 | 0.00 | 0.00 | 0.00 | 73 | 1020.2 |
| 20260906172606 | 25 | 248 | 4.8 | 11.3 | 0.00 | 0.00 | 0.00 | 75 | 1020.3 |
| 20260906171552 | 25 | 60 | 4.8 | 9.7 | 0.00 | 0.00 | 0.00 | 73 | 1020.3 |
| 20260906170518 | 25 | 275 | 4.8 | 9.7 | 0.00 | 0.00 | 0.00 | 73 | 1020.2 |
| 20260906165604 | 25 | 65 | 4.8 | 6.4 | 0.00 | 0.00 | 0.00 | 75 | 1020.3 |
| 20260906164528 | 23 | 3.2 | 3.2 | 0.00 | 0.00 | 0.00 | 80 | 1020.4 | |
| 20260906163553 | 23 | 340 | 4.8 | 6.4 | 0.00 | 0.00 | 0.00 | 80 | 1020.4 |
| 20260906162520 | 24 | 327 | 4.8 | 8.0 | 0.00 | 0.00 | 0.00 | 76 | 1020.4 |
| 20260906161525 | 25 | 141 | 6.4 | 12.9 | 0.00 | 0.00 | 0.00 | 74 | 1020.4 |
| 20260906160610 | 24 | 283 | 4.8 | 8.0 | 0.00 | 0.00 | 0.00 | 77 | 1020.5 |
| 20260906155517 | 24 | 245 | 4.8 | 9.7 | 0.00 | 0.00 | 0.00 | 77 | 1020.5 |
| 20260906154522 | 25 | 343 | 4.8 | 8.0 | 0.00 | 0.00 | 0.00 | 77 | 1020.3 |
| 20260906153548 | 23 | 199 | 6.4 | 9.7 | 0.00 | 0.00 | 0.00 | 79 | 1020.5 |
| 20260906152526 | 23 | 320 | 4.8 | 9.7 | 0.00 | 0.00 | 0.00 | 80 | 1020.4 |
| 20260906151518 | 23 | 247 | 4.8 | 8.0 | 0.00 | 0.00 | 0.00 | 81 | 1020.4 |
| 20260906150524 | 23 | 16 | 4.8 | 8.0 | 0.00 | 0.00 | 0.00 | 83 | 1020.4 |
| 20260906145522 | 23 | 323 | 6.4 | 8.0 | 0.00 | 0.00 | 0.00 | 82 | 1020.3 |
| 20260906144515 | 22 | 119 | 4.8 | 8.0 | 0.00 | 0.00 | 0.00 | 84 | 1020.2 |
| 20260906143521 | 22 | 238 | 3.2 | 4.8 | 0.00 | 0.00 | 0.00 | 84 | 1020.3 |
| 20260906142519 | 22 | 248 | 3.2 | 4.8 | 0.00 | 0.00 | 0.00 | 85 | 1020.2 |
| 20260906141519 | 21 | 259 | 3.2 | 4.8 | 0.00 | 0.00 | 0.00 | 87 | 1020.2 |
| 20260906140517 | 21 | 277 | 3.2 | 6.4 | 0.00 | 0.00 | 0.00 | 89 | 1020.1 |
| 20260906135516 | 21 | 36 | 3.2 | 6.4 | 0.00 | 0.00 | 0.00 | 91 | 1020.0 |
| 20260906134515 | 20 | 101 | 4.8 | 6.4 | 0.00 | 0.00 | 0.00 | 93 | 1020.1 |
| 20260906133552 | 19 | 104 | 3.2 | 8.0 | 0.00 | 0.00 | 0.00 | 95 | 1020.2 |
| 20260906132559 | 19 | 154 | 3.2 | 6.4 | 0.00 | 0.00 | 0.00 | 96 | 1020.1 |
| 20260906131524 | 18 | 284 | 1.6 | 4.8 | 0.00 | 0.00 | 0.00 | 99 | 1020.0 |
| 20260906130549 | 17 | 145 | 1.6 | 4.8 | 0.00 | 0.00 | 0.00 | 99 | 1020.0 |
| 20260906125515 | 17 | 273 | 3.2 | 6.4 | 0.00 | 0.00 | 0.00 | 99 | 1019.9 |
| 20260906124521 | 16 | 209 | 1.6 | 3.2 | 0.00 | 0.00 | 0.00 | 99 | 1019.8 |
| 20260906123526 | 16 | 195 | 3.2 | 4.8 | 0.00 | 0.00 | 0.00 | 99 | 1019.7 |
| 20260906122531 | 15 | 270 | 1.6 | 3.2 | 0.00 | 0.00 | 0.00 | 99 | 1019.5 |
| 20260906121518 | 14 | 45 | 0.0 | 4.8 | 0.00 | 0.00 | 0.00 | 99 | 1019.5 |
| 20260906120622 | 13 | 0.0 | 0.0 | 0.00 | 0.00 | 0.00 | 99 | 1019.5 | |
| 20260906115527 | 13 | 0.0 | 0.0 | 0.00 | 0.00 | 0.00 | 99 | 1019.4 | |
| 20260906114532 | 13 | 0.0 | 0.0 | 0.00 | 0.00 | 0.00 | 99 | 1019.2 | |
| 20260906113519 | 12 | 0.0 | 0.0 | 0.00 | 0.00 | 0.00 | 99 | 1019.2 | |
| 20260906112524 | 12 | 0.0 | 0.0 | 0.00 | 0.00 | 0.00 | 99 | 1019.1 | |
| 20260906111529 | 12 | 0.0 | 0.0 | 0.00 | 0.00 | 0.00 | 99 | 1019.0 | |
| 20260906110516 | 12 | 0.0 | 0.0 | 0.00 | 0.00 | 0.00 | 99 | 1018.8 | |
| 20260906105521 | 12 | 0.0 | 0.0 | 0.00 | 0.00 | 0.00 | 99 | 1018.8 | |
| 20260906104526 | 12 | 0.0 | 0.0 | 0.00 | 0.00 | 0.00 | 99 | 1018.6 | |
| 20260906103531 | 12 | 0.0 | 0.0 | 0.00 | 0.00 | 0.00 | 99 | 1018.6 | |
| 20260906102517 | 12 | 0.0 | 0.0 | 0.00 | 0.00 | 0.00 | 99 | 1018.5 | |
| 20260906101523 | 12 | 0.0 | 0.0 | 0.00 | 0.00 | 0.00 | 99 | 1018.4 | |
| 20260906100527 | 12 | 0.0 | 0.0 | 0.00 | 0.00 | 0.00 | 99 | 1018.3 | |
| 20260906095532 | 12 | 0.0 | 0.0 | 0.00 | 0.00 | 0.00 | 99 | 1018.3 | |
| 20260906094520 | 12 | 0.0 | 0.0 | 0.00 | 0.00 | 0.00 | 99 | 1018.3 | |
| 20260906093524 | 12 | 0.0 | 0.0 | 0.00 | 0.00 | 0.00 | 99 | 1017.9 | |
| 20260906092549 | 12 | 0.0 | 0.0 | 0.00 | 0.00 | 0.00 | 99 | 1017.8 | |
| 20260906091516 | 12 | 0.0 | 0.0 | 0.00 | 0.00 | 0.00 | 99 | 1017.9 | |
| 20260906090521 | 12 | 0.0 | 0.0 | 0.00 | 0.00 | 0.00 | 99 | 1017.9 | |
| 20260906085526 | 12 | 0.0 | 0.0 | 0.00 | 0.00 | 0.00 | 99 | 1017.9 | |
| 20260906084531 | 12 | 0.0 | 0.0 | 0.00 | 0.00 | 0.00 | 99 | 1017.6 | |
| 20260906083517 | 13 | 0.0 | 0.0 | 0.00 | 0.00 | 0.00 | 99 | 1017.8 | |
| 20260906082522 | 12 | 0.0 | 0.0 | 0.00 | 0.00 | 0.00 | 99 | 1017.7 | |
| 20260906081528 | 13 | 0.0 | 0.0 | 0.00 | 0.00 | 0.00 | 99 | 1017.6 | |
| 20260906080532 | 13 | 0.0 | 0.0 | 0.00 | 0.00 | 0.00 | 99 | 1017.6 | |
| 20260906075519 | 13 | 0.0 | 0.0 | 0.00 | 0.00 | 0.00 | 99 | 1017.6 | |
| 20260906074525 | 13 | 0.0 | 0.0 | 0.00 | 0.00 | 0.00 | 99 | 1017.6 | |
| 20260906073529 | 13 | 0.0 | 0.0 | 0.00 | 0.00 | 0.00 | 99 | 1017.6 | |
| 20260906072516 | 13 | 0.0 | 1.6 | 0.00 | 0.00 | 0.00 | 99 | 1017.5 | |
| 20260906071542 | 13 | 0.0 | 0.0 | 0.00 | 0.00 | 0.00 | 99 | 1017.4 | |
| 20260906070526 | 13 | 0.0 | 0.0 | 0.00 | 0.00 | 0.00 | 99 | 1017.3 | |
| 20260906065531 | 13 | 0.0 | 0.0 | 0.00 | 0.00 | 0.00 | 99 | 1017.4 | |
| 20260906064518 | 13 | 0.0 | 0.0 | 0.00 | 0.00 | 0.00 | 99 | 1017.3 | |
| 20260906063543 | 13 | 0.0 | 0.0 | 0.00 | 0.00 | 0.00 | 99 | 1017.4 | |
| 20260906062528 | 13 | 182 | 1.6 | 3.2 | 0.00 | 0.00 | 0.00 | 99 | 1017.6 |
| 20260906061526 | 13 | 0.0 | 0.0 | 0.00 | 0.00 | 0.00 | 99 | 1017.6 | |
| 20260906060519 | 13 | 0.0 | 0.0 | 0.00 | 0.00 | 0.00 | 99 | 1017.6 | |
| 20260906055524 | 13 | 0.0 | 0.0 | 0.00 | 0.00 | 0.00 | 99 | 1017.6 | |
| 20260906054523 | 14 | 0.0 | 0.0 | 0.00 | 0.00 | 0.00 | 99 | 1017.6 | |
| 20260906053516 | 14 | 180 | 0.0 | 1.6 | 0.00 | 0.00 | 0.00 | 99 | 1017.8 |
| 20260906052521 | 14 | 180 | 0.0 | 1.6 | 0.00 | 0.00 | 0.00 | 99 | 1017.8 |
| 20260906051520 | 14 | 0.0 | 0.0 | 0.00 | 0.00 | 0.00 | 99 | 1017.8 | |
| 20260906050519 | 14 | 0.0 | 0.0 | 0.00 | 0.00 | 0.00 | 99 | 1017.8 | |
| 20260906045538 | 14 | 0.0 | 0.0 | 0.00 | 0.00 | 0.00 | 99 | 1017.8 | |
| 20260906044537 | 14 | 0.0 | 0.0 | 0.00 | 0.00 | 0.00 | 99 | 1017.8 | |
| 20260906043536 | 14 | 0.0 | 0.0 | 0.00 | 0.00 | 0.00 | 99 | 1017.6 | |
| 20260906042533 | 15 | 0.0 | 0.0 | 0.00 | 0.00 | 0.00 | 99 | 1017.6 | |
| 20260906041559 | 15 | 0.0 | 0.0 | 0.00 | 0.00 | 0.00 | 99 | 1017.7 | |
| 20260906040525 | 15 | 143 | 1.6 | 4.8 | 0.00 | 0.00 | 0.00 | 99 | 1017.7 |
| 20260906035529 | 15 | 0.0 | 0.0 | 0.00 | 0.00 | 0.00 | 99 | 1017.6 | |
| 20260906034537 | 15 | 0.0 | 0.0 | 0.00 | 0.00 | 0.00 | 99 | 1017.8 | |
| 20260906033521 | 15 | 0.0 | 0.0 | 0.00 | 0.00 | 0.00 | 99 | 1017.6 | |
| 20260906032526 | 15 | 158 | 0.0 | 3.2 | 0.00 | 0.00 | 0.00 | 99 | 1017.4 |
| 20260906031551 | 15 | 0.0 | 0.0 | 0.00 | 0.00 | 0.00 | 99 | 1017.4 | |
| 20260906030517 | 15 | 0.0 | 0.0 | 0.00 | 0.00 | 0.00 | 99 | 1017.4 | |
| 20260906025542 | 15 | 0.0 | 0.0 | 0.00 | 0.00 | 0.00 | 99 | 1017.3 | |
| 20260906024528 | 16 | 0.0 | 0.0 | 0.00 | 0.00 | 0.00 | 99 | 1017.3 | |
| 20260906023532 | 16 | 0.0 | 0.0 | 0.00 | 0.00 | 0.00 | 99 | 1017.3 | |
| 20260906022519 | 16 | 0.0 | 0.0 | 0.00 | 0.00 | 0.00 | 99 | 1017.1 | |
| 20260906021525 | 16 | 0.0 | 0.0 | 0.00 | 0.00 | 0.00 | 99 | 1017.1 | |
| 20260906020529 | 16 | 0.0 | 0.0 | 0.00 | 0.00 | 0.00 | 99 | 1017.1 | |
| 20260906015516 | 16 | 0.0 | 0.0 | 0.00 | 0.00 | 0.00 | 99 | 1017.0 | |
| 20260906014521 | 16 | 0.0 | 0.0 | 0.00 | 0.00 | 0.00 | 99 | 1016.8 | |
| 20260906013526 | 17 | 0.0 | 0.0 | 0.00 | 0.00 | 0.00 | 99 | 1016.5 | |
| 20260906012530 | 17 | 0.0 | 0.0 | 0.00 | 0.00 | 0.00 | 99 | 1016.4 | |
| 20260906011517 | 17 | 0.0 | 0.0 | 0.00 | 0.00 | 0.00 | 99 | 1016.5 | |
| 20260906010522 | 17 | 0.0 | 0.0 | 0.00 | 0.00 | 0.00 | 99 | 1016.5 | |
| 20260906005527 | 18 | 0.0 | 0.0 | 0.00 | 0.00 | 0.00 | 99 | 1016.5 | |
| 20260906004532 | 18 | 0.0 | 0.0 | 0.00 | 0.00 | 0.00 | 99 | 1016.4 | |
| 20260906003519 | 18 | 0.0 | 0.0 | 0.00 | 0.00 | 0.00 | 98 | 1016.3 | |
| 20260906002544 | 19 | 0.0 | 0.0 | 0.00 | 0.00 | 0.00 | 98 | 1016.2 | |
| 20260906001549 | 20 | 0.0 | 0.0 | 0.00 | 0.00 | 0.00 | 95 | 1016.2 | |
| 20260906000516 | 20 | 0.0 | 0.0 | 0.00 | 0.00 | 0.00 | 93 | 1016.1 | |
| 20260905235521 | 21 | 0.0 | 0.0 | 0.00 | 0.00 | 0.00 | 92 | 1015.9 | |
| 20260905234526 | 21 | 0.0 | 0.0 | 0.00 | 0.00 | 0.00 | 89 | 1015.8 | |
| 20260905233531 | 22 | 158 | 0.0 | 3.2 | 0.00 | 0.00 | 0.00 | 87 | 1015.6 |
| 20260905232518 | 24 | 0.0 | 0.0 | 0.00 | 0.00 | 0.00 | 83 | 1015.6 | |
| 20260905231523 | 25 | 135 | 0.0 | 1.6 | 0.00 | 0.00 | 0.00 | 78 | 1015.6 |
| 20260905230528 | 27 | 135 | 0.0 | 1.6 | 0.00 | 0.00 | 0.00 | 75 | 1015.7 |
| 20260905225532 | 28 | 0.0 | 0.0 | 0.00 | 0.00 | 0.00 | 70 | 1015.5 | |
| 20260905224519 | 28 | 180 | 0.0 | 1.6 | 0.00 | 0.00 | 0.00 | 69 | 1015.3 |
| 20260905223525 | 30 | 89 | 1.6 | 4.8 | 0.00 | 0.00 | 0.00 | 66 | 1015.4 |
| 20260905222529 | 30 | 310 | 1.6 | 3.2 | 0.00 | 0.00 | 0.00 | 62 | 1015.3 |
| 20260905221536 | 30 | 298 | 3.2 | 4.8 | 0.00 | 0.00 | 0.00 | 63 | 1015.2 |
| 20260905220521 | 31 | 318 | 1.6 | 3.2 | 0.00 | 0.00 | 0.00 | 61 | 1015.2 |
| 20260905215525 | 29 | 248 | 1.6 | 4.8 | 0.00 | 0.00 | 0.00 | 66 | 1015.2 |
| 20260905214530 | 30 | 197 | 3.2 | 8.0 | 0.00 | 0.00 | 0.00 | 65 | 1015.1 |
| 20260905213517 | 28 | 291 | 4.8 | 6.4 | 0.00 | 0.00 | 0.00 | 67 | 1015.1 |
| 20260905212522 | 27 | 283 | 3.2 | 8.0 | 0.00 | 0.00 | 0.00 | 70 | 1015.0 |
| 20260905211527 | 26 | 286 | 3.2 | 8.0 | 0.00 | 0.00 | 0.00 | 72 | 1015.0 |
| 20260905210526 | 27 | 343 | 6.4 | 11.3 | 0.00 | 0.00 | 0.00 | 71 | 1015.0 |
| 20260905205518 | 27 | 335 | 6.4 | 9.7 | 0.00 | 0.00 | 0.00 | 70 | 1014.9 |
| 20260905204524 | 27 | 231 | 4.8 | 9.7 | 0.00 | 0.00 | 0.00 | 69 | 1014.9 |
| 20260905203523 | 28 | 268 | 4.8 | 8.0 | 0.00 | 0.00 | 0.00 | 70 | 1015.0 |
| 20260905202515 | 27 | 8 | 3.2 | 6.4 | 0.00 | 0.00 | 0.00 | 72 | 1014.9 |
| 20260905201521 | 26 | 141 | 3.2 | 8.0 | 0.00 | 0.00 | 0.00 | 75 | 1015.0 |
| 20260905200539 | 27 | 13 | 4.8 | 6.4 | 0.00 | 0.00 | 0.00 | 73 | 1015.0 |
| 20260905195538 | 26 | 191 | 1.6 | 4.8 | 0.00 | 0.00 | 0.00 | 78 | 1015.1 |
| 20260905194557 | 27 | 23 | 1.6 | 3.2 | 0.00 | 0.00 | 0.00 | 78 | 1015.2 |
| 20260905193516 | 26 | 338 | 1.6 | 6.4 | 0.00 | 0.00 | 0.00 | 77 | 1015.3 |
| 20260905192515 | 26 | 196 | 3.2 | 4.8 | 0.00 | 0.00 | 0.00 | 74 | 1015.5 |